Terug naar catalogus

STARLINK-1350

ActiefCommunicatieVLEO
NORAD 45535·PAYLOAD·🇺🇸 United States

Gelanceerd Apr 22, 2020 vanaf Cape Canaveral Space Force Station

Loading…

Volgende Passages (komende 24 uur)

TLE

VersSource: CelesTrak SupGP

Epoch: Sep 14, 2026, 21:45 UTC

1 45535C 20025E   26257.90673611  .00049067  00000+0  10883-2 0  2570
2 45535  53.0684 220.6091 0002415  70.9950 325.4087 15.43125884    13

Volg STARLINK-1350 in realtime met AllMySat

Download on the App Store